TimeCDT,TemperatureF,Dew PointF,Humidity,Sea Level PressureIn,VisibilityMPH,Wind Direction,Wind SpeedMPH,Gust SpeedMPH,PrecipitationIn,Events,Conditions,WindDirDegrees,DateUTC
12:53 AM,62.1,34.0,35,29.81,10.0,NNW,15.0,-,N/A,,Scattered Clouds,340,2012-10-14 05:53:00
1:53 AM,59.0,36.0,42,29.85,10.0,NW,18.4,26.5,N/A,,Partly Cloudy,320,2012-10-14 06:53:00
2:53 AM,59.0,34.0,39,29.89,10.0,NW,18.4,-,N/A,,Clear,310,2012-10-14 07:53:00
3:53 AM,57.0,33.1,40,29.91,10.0,NW,16.1,-,N/A,,Clear,320,2012-10-14 08:53:00
4:53 AM,55.9,34.0,44,29.94,10.0,NNW,15.0,-,N/A,,Clear,330,2012-10-14 09:53:00
5:53 AM,54.0,35.1,49,29.97,10.0,NNW,17.3,-,N/A,,Clear,330,2012-10-14 10:53:00
6:53 AM,50.0,35.1,57,30.02,10.0,WNW,12.7,-,N/A,,Clear,290,2012-10-14 11:53:00
7:53 AM,46.9,36.0,66,30.06,10.0,WNW,11.5,-,N/A,,Clear,290,2012-10-14 12:53:00
8:53 AM,50.0,37.9,63,30.06,10.0,WNW,13.8,-,N/A,,Clear,300,2012-10-14 13:53:00
9:53 AM,57.9,39.0,49,30.08,10.0,WNW,12.7,-,N/A,,Clear,290,2012-10-14 14:53:00
10:53 AM,64.0,39.0,40,30.09,10.0,WNW,11.5,-,N/A,,Clear,290,2012-10-14 15:53:00
11:53 AM,69.1,37.9,32,30.08,10.0,WNW,19.6,25.3,N/A,,Clear,300,2012-10-14 16:53:00
12:53 PM,71.1,37.9,30,30.07,10.0,WNW,17.3,24.2,N/A,,Clear,300,2012-10-14 17:53:00
1:53 PM,73.9,36.0,25,30.05,10.0,NW,19.6,28.8,N/A,,Clear,310,2012-10-14 18:53:00
2:53 PM,75.0,35.1,23,30.02,10.0,NW,19.6,25.3,N/A,,Partly Cloudy,310,2012-10-14 19:53:00
3:53 PM,73.0,33.1,23,30.02,10.0,NNW,21.9,29.9,N/A,,Partly Cloudy,330,2012-10-14 20:53:00
4:53 PM,73.9,34.0,23,30.01,10.0,NW,15.0,25.3,N/A,,Partly Cloudy,320,2012-10-14 21:53:00
5:53 PM,73.0,33.1,23,30.01,10.0,NW,13.8,24.2,N/A,,Clear,310,2012-10-14 22:53:00
6:53 PM,64.9,33.1,31,30.04,10.0,NW,10.4,-,N/A,,Clear,310,2012-10-14 23:53:00
7:53 PM,62.1,33.1,34,30.05,10.0,WNW,6.9,-,N/A,,Clear,300,2012-10-15 00:53:00
8:53 PM,59.0,35.1,41,30.06,10.0,West,5.8,-,N/A,,Clear,260,2012-10-15 01:53:00
9:53 PM,50.0,35.1,57,30.07,10.0,WSW,8.1,-,N/A,,Clear,250,2012-10-15 02:53:00
10:53 PM,46.0,34.0,63,30.07,10.0,WSW,8.1,-,N/A,,Clear,240,2012-10-15 03:53:00
11:53 PM,45.0,33.1,63,30.06,10.0,West,4.6,-,N/A,,Clear,280,2012-10-15 04:53:00